VLG8DL LEAM-LEBL

Flight info

Callsign VLG8DL
Flight time 1h 11m
Altitude 32000
Route DOSEK N860 VLC DCT CASIM DCT MATEX
Aircraft A320/M-SDE3FGHIRWY/LB1

Departure

Time 2026-04-14 15:56
Airport Almería Airport (LEAM)

Arrival

Time 2026-04-14 17:07
Airport Josep Tarradellas Barcelona-El Prat Airport (LEBL)
Time Latitude Longitude Altitude Speed Heading
2026-04-14 15:28 36.84672 -2.37151 70 ft 0 kts 153°
2026-04-14 15:50 36.84668 -2.37148 69 ft 2 kts 153°
2026-04-14 15:50 36.84642 -2.37127 59 ft 7 kts 138°
2026-04-14 15:50 36.84633 -2.37059 64 ft 10 kts 77°
2026-04-14 15:51 36.84650 -2.36981 67 ft 5 kts 80°
2026-04-14 15:51 36.84618 -2.36896 59 ft 16 kts 121°
2026-04-14 15:51 36.84630 -2.36755 65 ft 18 kts 73°
2026-04-14 15:51 36.84669 -2.36598 62 ft 20 kts 73°
2026-04-14 15:52 36.84712 -2.36422 66 ft 22 kts 73°
2026-04-14 15:52 36.84759 -2.36231 59 ft 24 kts 72°
2026-04-14 15:52 36.84810 -2.36022 61 ft 25 kts 73°
2026-04-14 15:52 36.84862 -2.35811 62 ft 26 kts 73°
2026-04-14 15:53 36.84912 -2.35609 65 ft 22 kts 72°
2026-04-14 15:53 36.84941 -2.35487 61 ft 23 kts 73°
2026-04-14 15:53 36.84901 -2.35335 59 ft 13 kts 156°
2026-04-14 15:53 36.84816 -2.35335 62 ft 5 kts 202°
2026-04-14 15:54 36.84796 -2.35383 62 ft 0 kts 252°
2026-04-14 15:55 36.84774 -2.35470 59 ft 38 kts 253°
2026-04-14 15:55 36.84628 -2.36066 58 ft 102 kts 253°
2026-04-14 15:55 36.84368 -2.37124 59 ft 149 kts 253°
2026-04-14 15:55 36.84045 -2.38436 367 ft 165 kts 252°
2026-04-14 15:56 36.83694 -2.39812 1049 ft 165 kts 252°
2026-04-14 15:56 36.83351 -2.41205 1582 ft 175 kts 252°
2026-04-14 15:56 36.82971 -2.42750 1861 ft 198 kts 252°
2026-04-14 15:56 36.82549 -2.44466 2250 ft 213 kts 253°
2026-04-14 15:57 36.82112 -2.46252 2977 ft 216 kts 253°
2026-04-14 15:57 36.81663 -2.48053 3765 ft 219 kts 250°
2026-04-14 15:57 36.80793 -2.49597 4484 ft 224 kts 213°
2026-04-14 15:57 36.79305 -2.50089 5182 ft 230 kts 174°
2026-04-14 15:58 36.77724 -2.49667 5868 ft 238 kts 161°
2026-04-14 15:58 36.76255 -2.48556 6203 ft 261 kts 131°
2026-04-14 15:58 36.75397 -2.46511 6666 ft 276 kts 98°
2026-04-14 15:58 36.75569 -2.44177 7366 ft 278 kts 65°
2026-04-14 15:59 36.76753 -2.42268 8147 ft 279 kts 36°
2026-04-14 15:59 36.78312 -2.40818 8978 ft 281 kts 34°
2026-04-14 15:59 36.79879 -2.39402 9770 ft 283 kts 34°
2026-04-14 15:59 36.81488 -2.37957 10488 ft 290 kts 34°
2026-04-14 16:00 36.83177 -2.36442 10711 ft 313 kts 34°
2026-04-14 16:00 36.84998 -2.34799 11039 ft 329 kts 34°
2026-04-14 16:00 36.86867 -2.33102 11685 ft 334 kts 34°
2026-04-14 16:00 36.88751 -2.31383 12377 ft 337 kts 34°
2026-04-14 16:01 36.90653 -2.29646 13041 ft 340 kts 34°
2026-04-14 16:01 36.92568 -2.27898 13689 ft 343 kts 34°
2026-04-14 16:01 36.94503 -2.26128 14319 ft 346 kts 34°
2026-04-14 16:01 36.96451 -2.24345 14942 ft 349 kts 34°
2026-04-14 16:02 36.98416 -2.22547 15527 ft 351 kts 34°
2026-04-14 16:02 37.00391 -2.20736 16118 ft 354 kts 34°
2026-04-14 16:02 37.02381 -2.18910 16687 ft 356 kts 34°
2026-04-14 16:02 37.04373 -2.17083 17246 ft 359 kts 34°
2026-04-14 16:03 37.06393 -2.15228 17811 ft 362 kts 34°
2026-04-14 16:03 37.08430 -2.13355 18378 ft 364 kts 34°
2026-04-14 16:03 37.10479 -2.11472 18939 ft 367 kts 34°
2026-04-14 16:03 37.12547 -2.09571 19490 ft 370 kts 34°
2026-04-14 16:04 37.14623 -2.07658 20039 ft 372 kts 34°
2026-04-14 16:04 37.16712 -2.05729 20578 ft 374 kts 34°
2026-04-14 16:04 37.18816 -2.03788 21095 ft 376 kts 34°
2026-04-14 16:04 37.20929 -2.01839 21587 ft 378 kts 34°
2026-04-14 16:05 37.23060 -1.99878 22065 ft 381 kts 34°
2026-04-14 16:05 37.25255 -1.98058 22534 ft 381 kts 26°
2026-04-14 16:05 37.27615 -1.96540 23009 ft 382 kts 25°
2026-04-14 16:05 37.29987 -1.95027 23472 ft 383 kts 25°
2026-04-14 16:06 37.32358 -1.93506 23906 ft 385 kts 25°
2026-04-14 16:06 37.34747 -1.91974 24338 ft 387 kts 25°
2026-04-14 16:06 37.37144 -1.90438 24749 ft 389 kts 25°
2026-04-14 16:06 37.39558 -1.88890 25150 ft 391 kts 25°
2026-04-14 16:07 37.41995 -1.87328 25535 ft 394 kts 25°
2026-04-14 16:07 37.44443 -1.85759 25922 ft 396 kts 25°
2026-04-14 16:07 37.46902 -1.84178 26295 ft 398 kts 25°
2026-04-14 16:07 37.49378 -1.82586 26658 ft 400 kts 25°
2026-04-14 16:08 37.51863 -1.80984 27033 ft 402 kts 25°
2026-04-14 16:08 37.54359 -1.79371 27395 ft 404 kts 25°
2026-04-14 16:08 37.56863 -1.77754 27751 ft 406 kts 25°
2026-04-14 16:08 37.59384 -1.76123 28109 ft 408 kts 25°
2026-04-14 16:09 37.61917 -1.74485 28460 ft 410 kts 25°
2026-04-14 16:09 37.64460 -1.72842 28801 ft 412 kts 25°
2026-04-14 16:09 37.67013 -1.71191 29136 ft 414 kts 25°
2026-04-14 16:09 37.69584 -1.69528 29463 ft 415 kts 25°
2026-04-14 16:10 37.72158 -1.67862 29786 ft 417 kts 25°
2026-04-14 16:10 37.74745 -1.66181 30138 ft 418 kts 25°
2026-04-14 16:10 37.77329 -1.64499 30592 ft 416 kts 25°
2026-04-14 16:10 37.79900 -1.62826 31052 ft 415 kts 25°
2026-04-14 16:11 37.82457 -1.61162 31489 ft 413 kts 24°
2026-04-14 16:11 37.85014 -1.59498 31906 ft 412 kts 24°
2026-04-14 16:11 37.87549 -1.57848 32062 ft 410 kts 24°
2026-04-14 16:12 37.92593 -1.54560 32092 ft 405 kts 25°
2026-04-14 16:12 37.97580 -1.51248 32092 ft 405 kts 25°
2026-04-14 16:13 38.02564 -1.47908 32091 ft 405 kts 25°
2026-04-14 16:13 38.07548 -1.44578 32091 ft 405 kts 25°
2026-04-14 16:14 38.12535 -1.41237 32094 ft 405 kts 25°
2026-04-14 16:14 38.17460 -1.37944 32094 ft 406 kts 25°
2026-04-14 16:15 38.22468 -1.34598 32096 ft 406 kts 25°
2026-04-14 16:15 38.27459 -1.31245 32102 ft 406 kts 25°
2026-04-14 16:16 38.32455 -1.27888 32103 ft 406 kts 25°
2026-04-14 16:16 38.37443 -1.24534 32103 ft 406 kts 25°
2026-04-14 16:17 38.42428 -1.21170 32102 ft 406 kts 25°
2026-04-14 16:17 38.47418 -1.17793 32102 ft 406 kts 25°
2026-04-14 16:18 38.52410 -1.14416 32116 ft 406 kts 25°
2026-04-14 16:18 38.57398 -1.11034 32117 ft 406 kts 25°
2026-04-14 16:19 38.62364 -1.07670 32123 ft 406 kts 25°
2026-04-14 16:19 38.67364 -1.04273 32133 ft 407 kts 25°
2026-04-14 16:20 38.72356 -1.00868 32132 ft 407 kts 25°
2026-04-14 16:20 38.77348 -0.97464 32134 ft 407 kts 25°
2026-04-14 16:21 38.82355 -0.94049 32137 ft 407 kts 25°
2026-04-14 16:21 38.87349 -0.90638 32129 ft 407 kts 25°
2026-04-14 16:22 38.92339 -0.87222 32138 ft 407 kts 25°
2026-04-14 16:22 38.97332 -0.83796 32131 ft 407 kts 25°
2026-04-14 16:23 39.02356 -0.80335 32137 ft 407 kts 25°
2026-04-14 16:23 39.07360 -0.76885 32126 ft 407 kts 25°
2026-04-14 16:24 39.12337 -0.73459 32132 ft 407 kts 25°
2026-04-14 16:24 39.17334 -0.70017 32136 ft 407 kts 25°
2026-04-14 16:25 39.22326 -0.66560 32127 ft 407 kts 25°
2026-04-14 16:25 39.27301 -0.63102 32128 ft 407 kts 25°
2026-04-14 16:26 39.32287 -0.59644 32131 ft 407 kts 25°
2026-04-14 16:26 39.37279 -0.56174 32121 ft 407 kts 25°
2026-04-14 16:27 39.42268 -0.52709 32120 ft 407 kts 25°
2026-04-14 16:27 39.47259 -0.49234 32126 ft 407 kts 26°
2026-04-14 16:28 39.52162 -0.45536 32131 ft 409 kts 29°
2026-04-14 16:28 39.56924 -0.41496 32119 ft 409 kts 31°
2026-04-14 16:29 39.61669 -0.37423 32122 ft 409 kts 30°
2026-04-14 16:29 39.66447 -0.33412 32127 ft 409 kts 30°
2026-04-14 16:30 39.71208 -0.29449 32119 ft 409 kts 30°
2026-04-14 16:30 39.75998 -0.25454 32110 ft 409 kts 30°
2026-04-14 16:31 39.80783 -0.21451 32125 ft 409 kts 30°
2026-04-14 16:31 39.85552 -0.17440 32115 ft 408 kts 30°
2026-04-14 16:32 39.90301 -0.13447 32125 ft 408 kts 30°
2026-04-14 16:32 39.95074 -0.09440 32115 ft 408 kts 30°
2026-04-14 16:33 39.99827 -0.05435 32118 ft 408 kts 30°
2026-04-14 16:33 40.04557 -0.01431 32100 ft 408 kts 30°
2026-04-14 16:34 40.09330 0.02614 32106 ft 409 kts 30°
2026-04-14 16:34 40.14079 0.06643 32145 ft 406 kts 30°
2026-04-14 16:35 40.18795 0.10652 32143 ft 403 kts 30°
2026-04-14 16:35 40.22748 0.13834 32142 ft 399 kts 23°
2026-04-14 16:36 40.27984 0.16122 32143 ft 397 kts 15°
2026-04-14 16:36 40.33294 0.18114 32135 ft 397 kts 15°
2026-04-14 16:36 40.35949 0.19115 31753 ft 398 kts 15°
2026-04-14 16:37 40.38604 0.20114 31217 ft 395 kts 15°
2026-04-14 16:37 40.41230 0.21102 30743 ft 390 kts 15°
2026-04-14 16:37 40.43827 0.22081 30264 ft 386 kts 15°
2026-04-14 16:37 40.46399 0.23048 29771 ft 383 kts 15°
2026-04-14 16:38 40.48950 0.24014 29300 ft 380 kts 15°
2026-04-14 16:38 40.51474 0.24972 28837 ft 376 kts 15°
2026-04-14 16:38 40.53912 0.26156 28381 ft 373 kts 24°
2026-04-14 16:38 40.56080 0.27865 27957 ft 372 kts 34°
2026-04-14 16:39 40.58026 0.30141 27675 ft 379 kts 44°
2026-04-14 16:39 40.59782 0.32758 27355 ft 382 kts 46°
2026-04-14 16:39 40.61519 0.35371 27035 ft 381 kts 46°
2026-04-14 16:39 40.63267 0.38008 26716 ft 380 kts 46°
2026-04-14 16:40 40.64999 0.40624 26389 ft 379 kts 46°
2026-04-14 16:40 40.66734 0.43248 26088 ft 378 kts 46°
2026-04-14 16:40 40.68456 0.45858 25775 ft 377 kts 46°
2026-04-14 16:40 40.70175 0.48461 25451 ft 376 kts 46°
2026-04-14 16:41 40.71886 0.51059 25151 ft 375 kts 46°
2026-04-14 16:41 40.73589 0.53653 24837 ft 374 kts 46°
2026-04-14 16:41 40.75288 0.56239 24525 ft 373 kts 46°
2026-04-14 16:41 40.76985 0.58820 24206 ft 371 kts 46°
2026-04-14 16:42 40.78672 0.61383 23906 ft 370 kts 46°
2026-04-14 16:42 40.80355 0.63942 23598 ft 369 kts 47°
2026-04-14 16:42 40.82034 0.66497 23295 ft 368 kts 47°
2026-04-14 16:42 40.83708 0.69045 22991 ft 367 kts 47°
2026-04-14 16:43 40.85372 0.71586 22688 ft 365 kts 47°
2026-04-14 16:43 40.87028 0.74118 22383 ft 364 kts 47°
2026-04-14 16:43 40.88681 0.76644 22087 ft 362 kts 47°
2026-04-14 16:43 40.90325 0.79155 21786 ft 361 kts 47°
2026-04-14 16:44 40.91965 0.81666 21482 ft 359 kts 47°
2026-04-14 16:44 40.93594 0.84163 21191 ft 358 kts 47°
2026-04-14 16:44 40.95214 0.86650 20894 ft 357 kts 47°
2026-04-14 16:45 40.98447 0.91595 20326 ft 354 kts 47°
2026-04-14 16:45 41.00054 0.94058 20094 ft 353 kts 47°
2026-04-14 16:45 41.01655 0.96521 19975 ft 353 kts 47°
2026-04-14 16:45 41.03254 0.98986 19850 ft 353 kts 47°
2026-04-14 16:46 41.04848 1.01450 19725 ft 352 kts 47°
2026-04-14 16:46 41.06440 1.03912 19595 ft 351 kts 47°
2026-04-14 16:46 41.08029 1.06370 19475 ft 351 kts 47°
2026-04-14 16:46 41.09617 1.08827 19349 ft 350 kts 47°
2026-04-14 16:47 41.11198 1.11272 19223 ft 350 kts 47°
2026-04-14 16:47 41.12758 1.13689 19101 ft 349 kts 47°
2026-04-14 16:47 41.14324 1.16149 18969 ft 349 kts 51°
2026-04-14 16:47 41.15721 1.18789 18850 ft 349 kts 53°
2026-04-14 16:48 41.17093 1.21440 18687 ft 348 kts 53°
2026-04-14 16:48 41.18457 1.24081 18492 ft 347 kts 53°
2026-04-14 16:48 41.19825 1.26726 18281 ft 346 kts 53°
2026-04-14 16:48 41.21187 1.29358 18091 ft 345 kts 53°
2026-04-14 16:49 41.22545 1.31981 17891 ft 344 kts 54°
2026-04-14 16:49 41.23896 1.34600 17689 ft 343 kts 54°
2026-04-14 16:49 41.25247 1.37223 17483 ft 342 kts 54°
2026-04-14 16:49 41.26588 1.39829 17257 ft 342 kts 54°
2026-04-14 16:50 41.27922 1.42425 16945 ft 338 kts 54°
2026-04-14 16:50 41.29242 1.44991 16512 ft 335 kts 54°
2026-04-14 16:50 41.30555 1.47540 16066 ft 333 kts 54°
2026-04-14 16:50 41.31860 1.50073 15623 ft 331 kts 54°
2026-04-14 16:51 41.33177 1.52635 15176 ft 330 kts 54°
2026-04-14 16:51 41.34386 1.55217 14740 ft 329 kts 62°
2026-04-14 16:51 41.35291 1.57988 14310 ft 328 kts 65°
2026-04-14 16:51 41.36174 1.60784 13876 ft 326 kts 65°
2026-04-14 16:52 41.37054 1.63562 13439 ft 324 kts 65°
2026-04-14 16:52 41.37932 1.66324 13010 ft 323 kts 65°
2026-04-14 16:52 41.38804 1.69070 12606 ft 321 kts 65°
2026-04-14 16:52 41.39672 1.71803 12184 ft 320 kts 65°
2026-04-14 16:53 41.40535 1.74527 11761 ft 319 kts 65°
2026-04-14 16:53 41.41395 1.77245 11341 ft 318 kts 65°
2026-04-14 16:53 41.42253 1.79952 10926 ft 317 kts 66°
2026-04-14 16:53 41.43104 1.82650 10530 ft 315 kts 66°
2026-04-14 16:54 41.43944 1.85329 10279 ft 309 kts 66°
2026-04-14 16:54 41.44761 1.87932 10137 ft 300 kts 66°
2026-04-14 16:54 41.45556 1.90456 10069 ft 291 kts 66°
2026-04-14 16:54 41.46165 1.93020 10084 ft 292 kts 82°
2026-04-14 16:55 41.46168 1.95738 10049 ft 295 kts 91°
2026-04-14 16:55 41.46071 1.98451 9867 ft 294 kts 91°
2026-04-14 16:55 41.45968 2.01173 9623 ft 292 kts 92°
2026-04-14 16:55 41.45864 2.03873 9387 ft 292 kts 92°
2026-04-14 16:56 41.45757 2.06568 9103 ft 290 kts 92°
2026-04-14 16:56 41.45650 2.09255 8827 ft 290 kts 92°
2026-04-14 16:56 41.45543 2.11924 8543 ft 288 kts 92°
2026-04-14 16:56 41.45436 2.14588 8277 ft 287 kts 92°
2026-04-14 16:57 41.45330 2.17241 8000 ft 286 kts 92°
2026-04-14 16:57 41.45225 2.19882 7722 ft 284 kts 92°
2026-04-14 16:57 41.45120 2.22477 7454 ft 284 kts 92°
2026-04-14 16:57 41.45012 2.25094 7183 ft 282 kts 92°
2026-04-14 16:58 41.44917 2.27731 6903 ft 280 kts 88°
2026-04-14 16:58 41.45089 2.30298 6622 ft 276 kts 77°
2026-04-14 16:58 41.45604 2.32730 6346 ft 271 kts 67°
2026-04-14 16:58 41.46378 2.35042 6071 ft 266 kts 63°
2026-04-14 16:59 41.47119 2.37202 5812 ft 254 kts 64°
2026-04-14 16:59 41.47829 2.39288 5602 ft 240 kts 64°
2026-04-14 16:59 41.48199 2.41389 5415 ft 231 kts 88°
2026-04-14 16:59 41.47880 2.43491 5316 ft 234 kts 114°
2026-04-14 17:00 41.46900 2.45208 5194 ft 236 kts 142°
2026-04-14 17:00 41.45431 2.46106 5099 ft 230 kts 172°
2026-04-14 17:00 41.43888 2.45986 5031 ft 220 kts 200°
2026-04-14 17:00 41.42589 2.44979 4972 ft 216 kts 227°
2026-04-14 17:01 41.41767 2.43350 4914 ft 212 kts 248°
2026-04-14 17:01 41.41163 2.41557 4855 ft 212 kts 249°
2026-04-14 17:01 41.40561 2.39760 4669 ft 212 kts 249°
2026-04-14 17:01 41.39957 2.37971 4419 ft 211 kts 249°
2026-04-14 17:02 41.39355 2.36192 4142 ft 211 kts 249°
2026-04-14 17:02 41.38750 2.34406 3847 ft 211 kts 249°
2026-04-14 17:02 41.38144 2.32618 3576 ft 211 kts 249°
2026-04-14 17:02 41.37538 2.30833 3311 ft 212 kts 249°
2026-04-14 17:03 41.36934 2.29054 3046 ft 209 kts 249°
2026-04-14 17:03 41.36344 2.27319 2755 ft 203 kts 249°
2026-04-14 17:03 41.35774 2.25641 2479 ft 195 kts 249°
2026-04-14 17:03 41.35230 2.24042 2225 ft 183 kts 248°
2026-04-14 17:04 41.34726 2.22557 1989 ft 170 kts 247°
2026-04-14 17:04 41.34255 2.21175 1771 ft 159 kts 247°
2026-04-14 17:04 41.33815 2.19885 1590 ft 147 kts 246°
2026-04-14 17:04 41.33405 2.18679 1379 ft 140 kts 246°
2026-04-14 17:05 41.33005 2.17505 1197 ft 139 kts 245°
2026-04-14 17:05 41.32610 2.16346 1014 ft 138 kts 245°
2026-04-14 17:05 41.32213 2.15185 826 ft 138 kts 244°
2026-04-14 17:05 41.31817 2.14026 652 ft 138 kts 244°
2026-04-14 17:06 41.31424 2.12866 458 ft 138 kts 245°
2026-04-14 17:06 41.31030 2.11703 266 ft 137 kts 245°
2026-04-14 17:06 41.30631 2.10543 85 ft 138 kts 245°
2026-04-14 17:06 41.30251 2.09434 19 ft 117 kts 245°
2026-04-14 17:07 41.29977 2.08631 25 ft 76 kts 245°
2026-04-14 17:07 41.29800 2.08121 20 ft 48 kts 244°
2026-04-14 17:07 41.29616 2.07850 16 ft 21 kts 215°
2026-04-14 17:07 41.29541 2.07781 17 ft 10 kts 216°
2026-04-14 17:08 41.29487 2.07723 16 ft 4 kts 221°
2026-04-14 17:08 41.29485 2.07722 16 ft 1 kts 221°
2026-04-14 17:08 41.29452 2.07654 17 ft 14 kts 246°
2026-04-14 17:08 41.29417 2.07531 19 ft 12 kts 232°
2026-04-14 17:09 41.29374 2.07422 18 ft 15 kts 246°
2026-04-14 17:09 41.29298 2.07357 16 ft 16 kts 160°
2026-04-14 17:09 41.29223 2.07364 20 ft 10 kts 234°
2026-04-14 17:09 41.29191 2.07342 19 ft 5 kts 156°
2026-04-14 17:10 41.29184 2.07347 19 ft 0 kts 155°
2026-04-14 17:10 41.29181 2.07349 19 ft 1 kts 155°
2026-04-14 17:10 41.29166 2.07359 20 ft 4 kts 154°
2026-04-14 17:10 41.29151 2.07368 19 ft 1 kts 155°
2026-04-14 17:11 41.29145 2.07371 19 ft 0 kts 155°